{"data":{"norad_id":53920,"epoch":"2026-05-24T19:09:37.507392Z","epoch_age_seconds":96042,"freshness":"FRESH","line1":"1 53920U 22119AL  26144.79835078 -.00000396  00000+0 -67767-5 0  9995","line2":"2 53920  53.2154 332.5214 0001098 107.1408 252.9705 15.08840940203318","mean_motion":15.0884094,"eccentricity":0.0001098,"inclination_deg":53.2154,"raan_deg":332.5214,"arg_perigee_deg":107.1408,"mean_anomaly_deg":252.9705,"bstar":-6.7767e-6,"rev_number":20331,"period_min":95.437495220669,"perigee_km":538.98093281042,"apogee_km":540.50009871288,"semimajor_km":6917.8775157616,"source":"CELESTRAK","updated_at":"2026-05-25T13:38:17.613215Z"}}